BVX11PW FMMI-FAOR

Flight info

Callsign BVX11PW
Flight time N/A
Altitude 38000
Route LIKID1E TW DCT SOPVI UB536 EDAMA/N0481F400 UB536 EROPA/N0484F280 UB536 ETIVI/N0485F400 UT444 PKV UT446 WIV WIV4A
Aircraft MD11/H-SDE1E2E3FGHIJ2J3J4J5M1RWXY/LB1D1

Departure

Time 2026-04-25 13:35
Airport Ivato International Airport (FMMI)

Arrival

Time N/A
Airport O.R. Tambo International Airport (FAOR)
Time Latitude Longitude Altitude Speed Heading
2026-04-25 13:15 -18.79953 47.47849 4147 ft 0 kts 188°
2026-04-25 13:26 -18.79938 47.47851 4145 ft 2 kts 193°
2026-04-25 13:26 -18.79922 47.47854 4148 ft 2 kts 196°
2026-04-25 13:26 -18.79906 47.47859 4147 ft 2 kts 201°
2026-04-25 13:27 -18.79891 47.47866 4147 ft 2 kts 214°
2026-04-25 13:27 -18.79879 47.47877 4146 ft 2 kts 252°
2026-04-25 13:27 -18.79876 47.47888 4148 ft 2 kts 281°
2026-04-25 13:27 -18.79877 47.47892 4146 ft 0 kts 279°
2026-04-25 13:30 -18.79862 47.47834 4148 ft 16 kts 284°
2026-04-25 13:30 -18.79849 47.47704 4145 ft 18 kts 279°
2026-04-25 13:31 -18.79712 47.47594 4145 ft 11 kts 358°
2026-04-25 13:31 -18.79639 47.47550 4149 ft 14 kts 311°
2026-04-25 13:31 -18.79626 47.47440 4148 ft 21 kts 276°
2026-04-25 13:31 -18.79597 47.47253 4143 ft 28 kts 279°
2026-04-25 13:32 -18.79570 47.47057 4145 ft 26 kts 279°
2026-04-25 13:32 -18.79542 47.46875 4143 ft 24 kts 279°
2026-04-25 13:32 -18.79517 47.46709 4140 ft 22 kts 279°
2026-04-25 13:32 -18.79494 47.46550 4145 ft 21 kts 278°
2026-04-25 13:33 -18.79493 47.46456 4147 ft 7 kts 302°
2026-04-25 13:33 -18.79474 47.46453 4146 ft 3 kts 20°
2026-04-25 13:33 -18.79454 47.46482 4146 ft 0 kts 70°
2026-04-25 13:33 -18.79454 47.46483 4146 ft 1 kts 75°
2026-04-25 13:34 -18.79485 47.46532 4142 ft 2 kts 124°
2026-04-25 13:34 -18.79495 47.46565 4147 ft 9 kts 103°
2026-04-25 13:34 -18.79498 47.46582 4145 ft 12 kts 100°
2026-04-25 13:34 -18.79560 47.46996 4143 ft 101 kts 99°
2026-04-25 13:35 -18.79709 47.47999 4162 ft 169 kts 100°
2026-04-25 13:35 -18.79895 47.49254 4914 ft 174 kts 99°
2026-04-25 13:35 -18.80087 47.50504 5889 ft 174 kts 99°
2026-04-25 13:35 -18.80272 47.51762 6820 ft 175 kts 99°
2026-04-25 13:36 -18.80463 47.53063 7609 ft 186 kts 101°
2026-04-25 13:36 -18.80688 47.54561 7742 ft 225 kts 101°
2026-04-25 13:36 -18.80945 47.56289 7906 ft 254 kts 99°
2026-04-25 13:36 -18.81259 47.58224 8332 ft 274 kts 106°
2026-04-25 13:37 -18.81827 47.60168 8984 ft 285 kts 117°
2026-04-25 13:37 -18.82845 47.61920 9967 ft 279 kts 132°
2026-04-25 13:37 -18.84258 47.63381 10412 ft 297 kts 146°
2026-04-25 13:37 -18.86166 47.64438 10572 ft 324 kts 162°
2026-04-25 13:38 -18.88454 47.64884 10754 ft 349 kts 179°
2026-04-25 13:38 -18.90888 47.64673 11560 ft 354 kts 187°
2026-04-25 13:38 -18.93365 47.64249 12297 ft 362 kts 189°
2026-04-25 13:38 -18.95851 47.63771 13187 ft 366 kts 190°
2026-04-25 13:39 -18.98379 47.63274 13954 ft 374 kts 191°
2026-04-25 13:39 -19.00902 47.62537 14617 ft 381 kts 199°
2026-04-25 13:39 -19.03283 47.61280 15390 ft 385 kts 212°
2026-04-25 13:39 -19.05327 47.59433 16118 ft 392 kts 226°
2026-04-25 13:40 -19.06875 47.57040 16796 ft 401 kts 241°
2026-04-25 13:40 -19.07796 47.54243 17460 ft 409 kts 257°
2026-04-25 13:40 -19.07997 47.51215 18148 ft 417 kts 272°
2026-04-25 13:40 -19.07633 47.48147 18743 ft 424 kts 278°
2026-04-25 13:41 -19.07041 47.45097 19446 ft 425 kts 281°
2026-04-25 13:41 -19.06397 47.42047 20129 ft 426 kts 281°
2026-04-25 13:41 -19.05764 47.38979 20816 ft 428 kts 279°
2026-04-25 13:41 -19.05360 47.36931 21244 ft 429 kts 280°
2026-04-25 13:42 -19.04578 47.32784 22145 ft 432 kts 279°
2026-04-25 13:42 -19.04012 47.29664 22780 ft 434 kts 278°
2026-04-25 13:42 -19.03640 47.27568 23203 ft 436 kts 278°
2026-04-25 13:42 -19.03081 47.24406 23818 ft 439 kts 278°
2026-04-25 13:43 -19.02523 47.21230 24353 ft 441 kts 279°
2026-04-25 13:43 -19.01777 47.16999 25039 ft 444 kts 279°
2026-04-25 13:43 -19.01403 47.14822 25381 ft 446 kts 278°
2026-04-25 13:43 -19.01073 47.11566 25874 ft 447 kts 270°
2026-04-25 13:44 -19.01289 47.08300 26350 ft 448 kts 258°
2026-04-25 13:44 -19.02175 47.05142 26826 ft 450 kts 248°
2026-04-25 13:44 -19.03479 47.02129 27266 ft 454 kts 243°
2026-04-25 13:44 -19.04951 46.99165 27729 ft 457 kts 242°
2026-04-25 13:45 -19.06452 46.96217 28162 ft 460 kts 242°
2026-04-25 13:45 -19.07959 46.93203 28618 ft 463 kts 243°
2026-04-25 13:45 -19.09430 46.90182 29105 ft 465 kts 244°
2026-04-25 13:45 -19.10892 46.87113 29551 ft 468 kts 244°
2026-04-25 13:46 -19.12345 46.84018 30012 ft 471 kts 245°
2026-04-25 13:46 -19.13784 46.80932 30396 ft 473 kts 245°
2026-04-25 13:46 -19.15233 46.77812 30823 ft 475 kts 245°
2026-04-25 13:46 -19.16701 46.74655 31334 ft 474 kts 245°
2026-04-25 13:47 -19.18181 46.71524 31873 ft 471 kts 244°
2026-04-25 13:47 -19.19656 46.68449 32423 ft 468 kts 244°
2026-04-25 13:47 -19.21122 46.65414 32960 ft 465 kts 244°
2026-04-25 13:47 -19.22590 46.62384 33471 ft 462 kts 244°
2026-04-25 13:48 -19.24084 46.59296 34020 ft 459 kts 244°
2026-04-25 13:48 -19.25531 46.56274 34449 ft 457 kts 244°
2026-04-25 13:48 -19.26950 46.53267 34811 ft 456 kts 245°
2026-04-25 13:48 -19.28355 46.50268 35183 ft 455 kts 245°
2026-04-25 13:49 -19.29756 46.47272 35537 ft 453 kts 245°
2026-04-25 13:49 -19.31145 46.44299 35899 ft 452 kts 245°
2026-04-25 13:49 -19.32543 46.41308 36249 ft 450 kts 245°
2026-04-25 13:49 -19.33918 46.38367 36558 ft 449 kts 246°
2026-04-25 13:50 -19.35300 46.35409 36890 ft 448 kts 246°
2026-04-25 13:50 -19.36677 46.32463 37209 ft 447 kts 246°
2026-04-25 13:50 -19.38059 46.29505 37521 ft 446 kts 246°
2026-04-25 13:50 -19.39428 46.26572 37873 ft 444 kts 246°
2026-04-25 13:51 -19.40801 46.23631 37971 ft 447 kts 246°
2026-04-25 13:51 -19.43561 46.17709 37995 ft 446 kts 246°
2026-04-25 13:52 -19.46293 46.11847 37994 ft 444 kts 246°
2026-04-25 13:52 -19.49018 46.05993 37989 ft 445 kts 246°
2026-04-25 13:53 -19.51750 46.00114 37981 ft 445 kts 246°
2026-04-25 13:53 -19.54485 45.94222 37977 ft 444 kts 246°
2026-04-25 13:54 -19.57208 45.88353 37971 ft 443 kts 246°
2026-04-25 13:54 -19.58572 45.85411 37970 ft 443 kts 246°
2026-04-25 13:55 -19.62648 45.76595 37955 ft 444 kts 246°
2026-04-25 13:55 -19.65355 45.70715 37946 ft 443 kts 246°
2026-04-25 13:56 -19.68068 45.64829 37946 ft 443 kts 246°
2026-04-25 13:56 -19.70754 45.59008 37929 ft 442 kts 247°
2026-04-25 13:57 -19.73465 45.53126 37923 ft 442 kts 246°
2026-04-25 13:57 -19.76170 45.47254 37922 ft 442 kts 246°
2026-04-25 13:58 -19.78874 45.41379 37920 ft 443 kts 246°
2026-04-25 13:58 -19.81587 45.35474 37916 ft 443 kts 247°
2026-04-25 13:59 -19.84260 45.29651 37909 ft 442 kts 247°
2026-04-25 13:59 -19.86959 45.23766 37919 ft 441 kts 247°
2026-04-25 14:00 -19.87866 45.21787 37907 ft 441 kts 247°
2026-04-25 14:01 -19.94786 45.06584 37918 ft 442 kts 247°
2026-04-25 14:01 -19.97456 45.00695 37917 ft 441 kts 247°
2026-04-25 14:02 -20.00121 44.94817 37919 ft 441 kts 247°
2026-04-25 14:02 -20.02777 44.88954 37920 ft 441 kts 247°
2026-04-25 14:03 -20.05453 44.83043 37918 ft 441 kts 247°
2026-04-25 14:03 -20.08095 44.77200 37922 ft 441 kts 247°
2026-04-25 14:04 -20.10767 44.71284 37918 ft 441 kts 247°
2026-04-25 14:04 -20.13425 44.65391 37923 ft 441 kts 247°
2026-04-25 14:05 -20.15631 44.60497 37924 ft 441 kts 247°
2026-04-25 14:05 -20.18730 44.53615 37922 ft 441 kts 247°
2026-04-25 14:06 -20.21389 44.47802 37919 ft 441 kts 245°
2026-04-25 14:06 -20.24367 44.42019 37923 ft 442 kts 243°
2026-04-25 14:07 -20.27401 44.36345 37925 ft 442 kts 243°
2026-04-25 14:07 -20.30438 44.30646 37923 ft 442 kts 243°
2026-04-25 14:08 -20.33459 44.24947 37920 ft 442 kts 243°
2026-04-25 14:08 -20.36477 44.19238 37926 ft 442 kts 243°
2026-04-25 14:09 -20.39491 44.13529 37928 ft 442 kts 243°
2026-04-25 14:09 -20.42507 44.07810 37927 ft 442 kts 244°
2026-04-25 14:10 -20.45514 44.02105 37929 ft 442 kts 243°
2026-04-25 14:10 -20.48528 43.96380 37929 ft 442 kts 243°
2026-04-25 14:11 -20.51535 43.90663 37928 ft 442 kts 244°
2026-04-25 14:11 -20.54542 43.84939 37926 ft 442 kts 244°
2026-04-25 14:12 -20.57544 43.79218 37937 ft 442 kts 243°
2026-04-25 14:12 -20.60544 43.73498 37928 ft 441 kts 243°
2026-04-25 14:13 -20.63532 43.67775 37929 ft 441 kts 244°
2026-04-25 14:13 -20.66516 43.62049 37931 ft 441 kts 244°
2026-04-25 14:14 -20.69501 43.56328 37925 ft 441 kts 244°
2026-04-25 14:14 -20.72486 43.50612 37928 ft 441 kts 244°
2026-04-25 14:15 -20.75469 43.44893 37923 ft 441 kts 244°
2026-04-25 14:15 -20.78451 43.39172 37933 ft 440 kts 244°
2026-04-25 14:16 -20.81409 43.33489 37934 ft 440 kts 244°
2026-04-25 14:16 -20.84402 43.27732 37938 ft 440 kts 244°
2026-04-25 14:17 -20.87371 43.22016 37949 ft 440 kts 244°
2026-04-25 14:17 -20.90343 43.16290 37949 ft 439 kts 244°
2026-04-25 14:18 -20.93287 43.10611 37950 ft 439 kts 244°
2026-04-25 14:18 -20.96247 43.04894 37949 ft 439 kts 244°
2026-04-25 14:19 -20.99214 42.99158 37947 ft 439 kts 244°
2026-04-25 14:19 -21.02170 42.93437 37940 ft 439 kts 244°
2026-04-25 14:20 -21.05109 42.87716 37937 ft 439 kts 244°
2026-04-25 14:20 -21.08054 42.81986 37939 ft 439 kts 244°
2026-04-25 14:21 -21.11004 42.76257 37938 ft 439 kts 244°
2026-04-25 14:21 -21.13950 42.70531 37957 ft 439 kts 244°
2026-04-25 14:22 -21.16897 42.64798 37957 ft 439 kts 244°
2026-04-25 14:22 -21.19842 42.59065 37949 ft 439 kts 244°
2026-04-25 14:23 -21.22776 42.53345 37949 ft 437 kts 244°
2026-04-25 14:23 -21.25708 42.47623 37950 ft 438 kts 244°
2026-04-25 14:24 -21.28639 42.41897 37952 ft 438 kts 244°
2026-04-25 14:24 -21.31551 42.36201 37958 ft 438 kts 244°
2026-04-25 14:25 -21.34477 42.30474 37958 ft 438 kts 244°
2026-04-25 14:25 -21.37394 42.24756 37961 ft 438 kts 244°
2026-04-25 14:26 -21.40320 42.19016 37962 ft 438 kts 244°
2026-04-25 14:26 -21.42743 42.14253 37967 ft 438 kts 244°
2026-04-25 14:27 -21.46138 42.07544 37967 ft 438 kts 244°
2026-04-25 14:27 -21.49050 42.01801 37972 ft 438 kts 244°
2026-04-25 14:28 -21.51965 41.96055 37970 ft 438 kts 244°
2026-04-25 14:28 -21.54875 41.90315 37968 ft 438 kts 244°
2026-04-25 14:29 -21.57786 41.84566 37969 ft 438 kts 244°
2026-04-25 14:29 -21.60694 41.78818 37968 ft 438 kts 244°
2026-04-25 14:30 -21.63585 41.73098 37978 ft 438 kts 244°
2026-04-25 14:30 -21.67941 41.64465 37974 ft 438 kts 245°
2026-04-25 14:31 -21.70848 41.58698 37975 ft 438 kts 244°
2026-04-25 14:31 -21.73749 41.52935 37975 ft 438 kts 245°
2026-04-25 14:32 -21.76651 41.47164 37980 ft 438 kts 245°
2026-04-25 14:32 -21.79555 41.41383 37982 ft 438 kts 245°
2026-04-25 14:33 -21.82445 41.35616 37985 ft 438 kts 245°
2026-04-25 14:33 -21.85333 41.29823 37980 ft 438 kts 245°
2026-04-25 14:34 -21.88201 41.24080 37986 ft 438 kts 245°
2026-04-25 14:34 -21.91094 41.18290 37982 ft 438 kts 245°
2026-04-25 14:35 -21.93979 41.12515 37991 ft 439 kts 245°
2026-04-25 14:35 -21.96870 41.06722 37986 ft 439 kts 245°
2026-04-25 14:36 -21.99756 41.00931 37984 ft 439 kts 245°
2026-04-25 14:36 -22.02179 40.96067 37989 ft 439 kts 245°
2026-04-25 14:37 -22.05522 40.89344 37989 ft 439 kts 245°
2026-04-25 14:37 -22.08417 40.83516 37988 ft 440 kts 245°
2026-04-25 14:38 -22.11307 40.77692 37988 ft 440 kts 245°
2026-04-25 14:38 -22.14193 40.71870 37990 ft 440 kts 245°
2026-04-25 14:39 -22.17076 40.66046 37990 ft 440 kts 245°
2026-04-25 14:39 -22.19960 40.60209 37990 ft 440 kts 245°
2026-04-25 14:40 -22.22841 40.54382 37991 ft 440 kts 245°
2026-04-25 14:40 -22.25241 40.49537 37991 ft 440 kts 245°
2026-04-25 14:41 -22.28126 40.43716 37997 ft 440 kts 245°
2026-04-25 14:41 -22.31016 40.37879 37997 ft 440 kts 245°
2026-04-25 14:42 -22.33416 40.33027 37995 ft 440 kts 245°
2026-04-25 14:42 -22.36781 40.26217 37997 ft 440 kts 245°
2026-04-25 14:43 -22.39664 40.20373 38004 ft 441 kts 245°
2026-04-25 14:43 -22.42530 40.14556 38004 ft 441 kts 245°
2026-04-25 14:44 -22.45416 40.08694 38002 ft 441 kts 246°
2026-04-25 14:44 -22.48314 40.02801 38013 ft 441 kts 246°
2026-04-25 14:45 -22.51190 39.96929 38006 ft 441 kts 246°
2026-04-25 14:45 -22.54059 39.91062 38005 ft 441 kts 246°
2026-04-25 14:46 -22.56917 39.85226 38007 ft 442 kts 246°
2026-04-25 14:46 -22.59814 39.79311 38016 ft 442 kts 246°
2026-04-25 14:47 -22.62207 39.74420 38008 ft 442 kts 246°
2026-04-25 14:47 -22.65552 39.67573 38011 ft 442 kts 246°
2026-04-25 14:48 -22.68424 39.61687 38013 ft 442 kts 246°
2026-04-25 14:48 -22.71283 39.55823 38014 ft 442 kts 246°
2026-04-25 14:49 -22.74154 39.49925 38005 ft 443 kts 246°
2026-04-25 14:49 -22.77023 39.44024 38005 ft 443 kts 246°
2026-04-25 14:50 -22.79889 39.38124 38020 ft 443 kts 246°
2026-04-25 14:50 -22.82754 39.32219 38017 ft 443 kts 246°
2026-04-25 14:51 -22.85623 39.26299 38017 ft 443 kts 246°
2026-04-25 14:51 -22.88480 39.20391 38018 ft 443 kts 246°
2026-04-25 14:52 -22.91331 39.14457 38018 ft 443 kts 246°
2026-04-25 14:52 -22.93702 39.09532 38022 ft 443 kts 246°
2026-04-25 14:53 -22.97041 39.02601 38023 ft 443 kts 246°
2026-04-25 14:53 -22.99892 38.96683 38024 ft 443 kts 246°
2026-04-25 14:54 -23.02746 38.90751 38023 ft 443 kts 246°
2026-04-25 14:54 -23.05598 38.84817 38025 ft 444 kts 247°
2026-04-25 14:55 -23.08432 38.78911 38033 ft 444 kts 247°
2026-04-25 14:55 -23.11282 38.72966 38032 ft 444 kts 247°
2026-04-25 14:56 -23.14133 38.67011 38032 ft 444 kts 247°
2026-04-25 14:56 -23.16972 38.61074 38036 ft 443 kts 246°
2026-04-25 14:57 -23.19815 38.55124 38035 ft 442 kts 246°
2026-04-25 14:57 -23.22643 38.49195 38036 ft 442 kts 246°
2026-04-25 14:58 -23.25475 38.43250 38034 ft 442 kts 246°
2026-04-25 14:58 -23.28295 38.37304 38034 ft 442 kts 246°
2026-04-25 14:59 -23.31109 38.31353 38036 ft 442 kts 246°
2026-04-25 14:59 -23.33926 38.25409 38039 ft 442 kts 246°